[Date Prev][Date Next][Thread Prev][Thread Next] - [Date Index][Thread Index][Author Index]

2 Line ISS Keps 2-9



ISS
1 25544U 98067A   04040.23657407  .00012471  00000-0  12020-3 0  1559
2 25544  51.6286 262.2113 0007425 143.8184  12.6076 15.66921298298082


----
Via the sarex mailing list at AMSAT.ORG courtesy of AMSAT-NA.
To unsubscribe, send "unsubscribe sarex" to Majordomo@amsat.org



AMSAT Top AMSAT Home